Cloud_Cover
20 41 5 4 5 2 47 1 25 31 5 71 35 43 70 100 74 81 58 100 92 100 100 100 99 99 86 100 94 100 64 36 94 71 78 96 99 100 100 100 55 91 100
96 5 5 6 5 5 5 98 5 6 85 70 43 42 43 64 96 68 43 100 100 100 100 100 100 78 100 65 84 49 68 68 42 98 94 96 100 100 100 100 100 100 100
9 5 63 45 5 5 79 78 45 7 20 5 5 5 19 33 68 58 73 98 100 100 100 100 100 100 100 98 66 53 48 92 69 58 94 100 100 100 100 100 100 100 97
62 58 57 69 78 65 29 50 39 36 90 35 5 2 12 18 48 40 50 100 100 100 100 100 100 100 100 66 78 96 80 100 99 99 100 100 100 100 100 100 100 100 97
100 100 100 100 100 100 100 88 62 76 82 5 0 0 0 5 10 61 76 52 97 100 100 87 100 100 100 100 96 87 97 50 89 100 100 100 100 100 100 100 100 100 98
100 100 100 100 100 100 100 100 100 84 16 5 4 0 3 0 5 10 45 53 100 17 100 29 94 100 100 100 100 100 100 100 100 100 100 100 100 100 100 100 100 100 99
100 100 100 100 100 100 100 100 100 100 100 15 7 2 1 3 0 16 69 79 75 100 74 28 78 90 100 100 100 100 100 94 68 100 83 93 100 100 100 100 100 100 77
100 100 100 100 98 100 100 100 100 100 100 98 82 42 35 15 0 0 81 61 86 99 100 100 88 76 89 100 100 100 100 100 100 100 100 100 100 100 82 99 89 99 100
100 100 95 98 99 100 100 100 100 100 100 98 39 93 76 63 15 0 9 5 11 97 100 100 100 38 100 100 100 100 100 100 100 100 100 100 100 100 93 100 100 100 100
99 47 67 100 97 100 100 100 100 100 100 100 95 90 76 51 23 14 48 6 58 100 100 100 100 100 100 100 100 100 100 100 77 100 100 100 100 99 80 93 85 100 100
42 72 100 100 100 100 100 100 100 100 100 100 80 83 90 85 66 67 91 100 100 100 100 98 64 100 100 100 100 100 100 100 100 100 100 100 100 99 99 100 100 100 100
40 80 100 100 100 100 100 100 100 100 100 100 97 81 46 69 42 6 28 82 39 25 96 75 99 99 100 100 100 100 100 100 100 100 100 100 93 100 96 100 100 98 99
100 100 100 100 100 100 100 100 100 100 100 100 100 87 53 74 99 84 25 44 83 42 45 80 92 65 34 100 100 100 100 100 100 100 100 100 84 93 100 100 99 100 93
100 100 100 100 100 100 100 100 100 100 100 100 100 100 77 96 97 96 58 98 95 98 43 40 85 100 100 97 98 100 100 100 100 100 99 100 100 100 88 100 98 73 100
100 100 100 100 100 100 100 100 100 100 100 100 100 100 100 81 52 95 100 40 69 100 100 100 100 100 100 100 86 98 100 100 100 100 100 96 100 100 100 100 100 95 100
100 100 100 100 100 100 100 100 100 100 100 100 100 100 78 85 87 98 100 100 100 100 100 100 95 98 100 100 100 100 100 97 100 99 100 100 100 100 100 100 100 99 97
100 100 100 100 100 100 100 100 100 100 100 100 100 100 100 99 100 100 100 100 100 100 100 100 100 100 100 100 100 100 100 100 100 100 100 100 100 100 100 100 100 100 100
100 100 100 100 100 100 100 100 100 100 100 100 82 72 79 100 100 100 100 100 100 100 100 100 100 100 100 100 100 100 100 100 100 100 100 100 100 100 100 100 100 100 100
100 100 100 100 100 100 100 100 32 59 100 94 87 80 44 33 100 100 100 100 100 91 100 100 100 100 100 100 100 100 97 100 100 100 100 100 100 100 100 100 100 100 100
100 100 100 77 100 100 100 97 65 5 75 71 75 46 26 75 63 97 100 100 100 100 100 100 100 100 100 100 100 100 100 100 100 100 100 100 100 100 100 100 100 100 100
100 100 100 100 100 78 17 5 75 17 72 94 39 27 99 91 100 95 100 100 100 100 100 100 100 100 100 100 100 100 100 100 100 100 100 100 100 100 100 100 100 100 100
71 79 100 46 76 98 61 72 5 5 7 68 84 66 80 100 100 100 100 100 100 100 100 100 100 100 100 100 100 100 100 100 100 100 100 100 100 100 100 100 100 100 100
84 98 100 98 60 22 42 27 36 40 39 77 63 19 74 35 91 100 100 100 100 100 100 100 100 77 99 100 100 100 100 100 100 100 100 100 100 100 100 100 100 100 100
100 99 100 100 96 13 10 44 90 56 75 78 79 44 8 78 95 100 100 100 100 100 96 100 100 96 62 100 78 85 66 74 100 100 100 100 100 100 100 100 100 100 100
76 98 68 100 100 100 100 100 100 100 100 100 75 77 56 30 42 58 97 100 100 100 100 73 66 82 51 99 100 82 91 100 99 100 100 100 100 100 100 100 100 100 100
78 85 88 75 96 100 99 100 100 100 100 100 93 100 94 85 68 98 82 74 90 92 100 96 73 66 76 87 100 98 41 94 90 79 94 99 100 100 100 100 100 100 100